Location: Gauravaram
(16.6995°N, 80.5417°E)
Time: 09:40:28
(UTC+00:00)

SL-16 R/B - Pass Details

Date: 03 August 2024
Orbit: 841 x 847 km, 71.0° (Epoch: 14 September)

Event Time Altitude Azimuth Distance (km) Brightness Sun altitude
Exits shadow 23:18:03 12° 206° (SSW) 2,343 4.1 -14.5°
Maximum altitude 23:23:21 66° 287° (WNW) 919 2.2 -13.3°
Drops below altitude 10° 23:28:58 10° 9° (N) 2,465 5.1 -12.1°
Sets 23:31:26 0° 12° (NNE) 3,401 5.9 -11.5°
